TimeCDT,TemperatureF,Dew PointF,Humidity,Sea Level PressureIn,VisibilityMPH,Wind Direction,Wind SpeedMPH,Gust SpeedMPH,PrecipitationIn,Events,Conditions,WindDirDegrees,DateUTC
12:53 AM,39.0,37.9,96,30.11,2.0,Calm,Calm,-,N/A,,Clear,0,2012-10-09 05:53:00
1:00 AM,39.0,37.9,96,30.11,1.8,Calm,Calm,-,N/A,,Clear,0,2012-10-09 06:00:00
1:10 AM,39.9,39.0,97,30.11,3.0,Calm,Calm,-,N/A,,Clear,0,2012-10-09 06:10:00
1:49 AM,39.2,37.4,93,30.11,3.0,Calm,Calm,-,N/A,,Clear,0,2012-10-09 06:49:00
1:53 AM,39.9,39.0,97,30.11,3.0,Calm,Calm,-,N/A,,Clear,0,2012-10-09 06:53:00
1:55 AM,39.0,39.0,100,30.11,1.8,Calm,Calm,-,N/A,,Clear,0,2012-10-09 06:55:00
2:05 AM,39.0,37.9,96,30.12,0.5,Calm,Calm,-,N/A,Fog,Fog,0,2012-10-09 07:05:00
2:32 AM,37.9,37.0,97,30.11,0.5,Calm,Calm,-,N/A,Fog,Fog,0,2012-10-09 07:32:00
2:42 AM,39.0,37.9,96,30.11,0.5,Calm,Calm,-,N/A,Fog,Fog,0,2012-10-09 07:42:00
2:46 AM,37.9,37.9,100,30.11,0.2,Calm,Calm,-,N/A,Fog,Fog,0,2012-10-09 07:46:00
3:21 AM,37.9,37.0,97,30.11,0.5,ESE,3.5,-,N/A,Fog,Fog,110,2012-10-09 08:21:00
3:28 AM,37.9,37.9,100,30.10,0.2,ESE,3.5,-,N/A,Fog,Fog,110,2012-10-09 08:28:00
3:34 AM,39.0,37.9,96,30.10,1.8,Calm,Calm,-,N/A,,Scattered Clouds,0,2012-10-09 08:34:00
3:41 AM,37.0,37.0,100,30.10,6.0,Calm,Calm,-,N/A,,Scattered Clouds,0,2012-10-09 08:41:00
3:44 AM,37.9,37.0,97,30.10,1.5,Calm,Calm,-,N/A,,Partly Cloudy,0,2012-10-09 08:44:00
3:47 AM,37.4,37.4,100,30.10,0.8,ENE,3.5,-,N/A,,Mist,60,2012-10-09 08:47:00
3:53 AM,37.0,36.0,96,30.10,0.5,NE,3.5,-,N/A,Fog,Fog,50,2012-10-09 08:53:00
4:15 AM,37.0,37.0,100,30.09,1.2,ESE,3.5,-,N/A,,Partly Cloudy,110,2012-10-09 09:15:00
4:17 AM,37.0,37.0,100,30.09,3.0,East,3.5,-,N/A,,Partly Cloudy,100,2012-10-09 09:17:00
4:26 AM,37.0,36.0,96,30.09,1.5,Calm,Calm,-,N/A,,Partly Cloudy,0,2012-10-09 09:26:00
4:29 AM,37.0,36.0,96,30.09,0.8,Calm,Calm,-,N/A,,Mist,0,2012-10-09 09:29:00
4:53 AM,37.0,37.0,100,30.09,0.2,Calm,Calm,-,N/A,Fog,Fog,0,2012-10-09 09:53:00
5:03 AM,37.9,37.0,97,30.09,0.8,Calm,Calm,-,N/A,,Mist,0,2012-10-09 10:03:00
5:23 AM,37.0,37.0,100,30.10,1.2,Calm,Calm,-,N/A,,Scattered Clouds,0,2012-10-09 10:23:00
5:42 AM,37.0,36.0,96,30.10,0.8,Calm,Calm,-,N/A,,Mist,0,2012-10-09 10:42:00
5:53 AM,37.0,36.0,96,30.09,0.5,Calm,Calm,-,N/A,Fog,Fog,0,2012-10-09 10:53:00
6:11 AM,37.0,36.0,96,30.09,0.2,Calm,Calm,-,N/A,Fog,Fog,0,2012-10-09 11:11:00
6:32 AM,37.0,36.0,96,30.09,0.8,ENE,3.5,-,N/A,,Mist,60,2012-10-09 11:32:00
6:53 AM,36.0,36.0,100,30.09,1.5,East,3.5,-,N/A,,Partly Cloudy,80,2012-10-09 11:53:00
6:56 AM,36.0,35.1,97,30.09,3.0,East,3.5,-,N/A,,Partly Cloudy,90,2012-10-09 11:56:00
7:49 AM,37.4,37.4,100,30.10,2.5,Calm,Calm,-,N/A,,Clear,0,2012-10-09 12:49:00
7:53 AM,39.0,37.9,96,30.10,2.5,Calm,Calm,-,N/A,,Clear,0,2012-10-09 12:53:00
8:16 AM,43.0,42.1,97,30.11,3.0,Calm,Calm,-,N/A,,Partly Cloudy,0,2012-10-09 13:16:00
8:53 AM,46.9,44.1,90,30.12,7.0,Calm,Calm,-,N/A,,Overcast,0,2012-10-09 13:53:00
9:53 AM,50.0,46.0,86,30.11,8.0,East,3.5,-,N/A,,Overcast,90,2012-10-09 14:53:00
10:53 AM,53.1,46.9,80,30.09,10.0,East,6.9,-,N/A,,Overcast,90,2012-10-09 15:53:00
11:53 AM,-9999,-9999,N/A,30.07,-9999.0,North,-9999.0,-,N/A,,Unknown,0,2012-10-09 16:53:00
12:53 PM,60.1,48.9,67,30.03,10.0,Variable,6.9,-,N/A,,Unknown,0,2012-10-09 17:53:00
1:53 PM,64.0,50.0,60,29.99,10.0,SSE,9.2,-,N/A,,Overcast,150,2012-10-09 18:53:00
2:53 PM,66.9,52.0,59,29.94,10.0,SSE,10.4,-,N/A,,Overcast,160,2012-10-09 19:53:00
3:53 PM,66.9,54.0,63,29.92,10.0,Variable,5.8,-,N/A,,Overcast,0,2012-10-09 20:53:00
4:53 PM,68.0,55.0,63,29.90,10.0,Calm,Calm,-,N/A,,Overcast,0,2012-10-09 21:53:00
5:53 PM,66.9,57.9,73,29.90,10.0,Calm,Calm,-,N/A,,Overcast,0,2012-10-09 22:53:00
6:53 PM,64.9,59.0,81,29.91,10.0,NNE,3.5,-,N/A,,Overcast,20,2012-10-09 23:53:00
7:33 PM,64.9,57.9,78,29.94,10.0,Calm,Calm,-,N/A,,Overcast,0,2012-10-10 00:33:00
7:40 PM,64.9,57.9,78,29.95,10.0,Calm,Calm,-,N/A,,Overcast,0,2012-10-10 00:40:00
7:53 PM,64.9,57.9,78,29.95,10.0,Calm,Calm,-,N/A,,Overcast,0,2012-10-10 00:53:00
8:53 PM,64.0,57.9,80,29.98,10.0,ENE,3.5,-,0.00,,Overcast,60,2012-10-10 01:53:00
9:53 PM,64.0,57.0,78,30.01,10.0,NE,5.8,-,N/A,,Overcast,50,2012-10-10 02:53:00
10:53 PM,61.0,55.9,83,30.02,10.0,East,3.5,-,N/A,,Mostly Cloudy,90,2012-10-10 03:53:00
11:53 PM,61.0,57.0,87,30.03,9.0,Calm,Calm,-,N/A,,Overcast,0,2012-10-10 04:53:00